Flag for Germany Weather past 2 weeks in Merseburg, Saxony-Anhalt, Germany

Now
63 °F

Sunny.


Feels Like: 63 °F
Forecast: 54 / 67 °F
Wind: 12 mph from Southeast

Location: Leipzig-Schkeuditz

Current Time: May 5, 2015 at 8:22:22 AM

Latest Report: May 5, 2015 at 7:50 AM


Visibility: 10 mi

Pressure: 29.62 "Hg

Humidity: 77%

Dew point: 55 °F

Location of MerseburgLocation

Historic Weather in Merseburg — Graph

°F

Merseburg temperature yesterday

Maximum temperature yesterday: 73 °F (at 3:50 PM)
Minimum temperature yesterday: 55 °F (at 1:20 AM)
Average temperature yesterday: 63 °F

Past Weeks' High & Low Weather Summary

 TemperatureHumidityPressure
High73 °F (May 4, 3:50 PM)100% (Apr 23, 12:50 AM)30.33 "Hg (Apr 23, 12:50 AM)
Low34 °F (Apr 23, 5:50 AM)23% (Apr 21, 3:50 PM)29.56 "Hg (Apr 27, 5:20 AM)
Average53 °F69%29.93 "Hg
* Reported Apr 20 7:20 AM — May 5 7:20 AM, Merseburg, Weather by CustomWeather, © 2015

Note: Actual official high and low records may vary slightly from our data, if they occured in-between our weather recording intervals... More about our weather records

Advertising

Merseburg weather history for previous 24 hours

 ConditionsComfort  
Time TempWeatherWind HumidityBarometerVisibility
7:20 AM
Tue, May 5
61 °FSunny.14 mph83%29.62 "Hg10 mi
6:50 AM61 °FSunny.12 mph83%29.62 "Hg10 mi
6:20 AM59 °FClear.12 mph88%29.65 "Hg10 mi
5:20 AM59 °FLight rain. Clear.13 mph82%29.65 "HgN/A
4:50 AM59 °FClear.12 mph82%29.65 "Hg10 mi
4:20 AM57 °FClear.10 mph82%29.68 "Hg10 mi
3:50 AM59 °FClear.10 mph77%29.71 "Hg10 mi
3:20 AM57 °FClear.9 mph82%29.71 "Hg10 mi
2:50 AM59 °FClear.10 mph77%29.71 "Hg10 mi
2:20 AM57 °FClear.10 mph82%29.71 "Hg10 mi
1:50 AM57 °FClear.12 mph77%29.74 "Hg10 mi
1:20 AM59 °FClear.12 mph72%29.74 "Hg10 mi
12:50 AM57 °FClear.10 mph77%29.74 "Hg10 mi
12:20 AM59 °FClear.10 mph77%29.77 "Hg10 mi
11:50 PM
Mon, May 4
57 °FClear.10 mph82%29.77 "Hg10 mi
11:20 PM55 °FClear.9 mph82%29.77 "Hg10 mi
10:50 PM57 °FClear.8 mph82%29.77 "Hg10 mi
10:20 PM59 °FClear.9 mph77%29.80 "Hg10 mi
9:50 PM59 °FClear.9 mph77%29.80 "Hg10 mi
9:20 PM63 °FSunny.7 mph68%29.80 "Hg10 mi
8:50 PM64 °FSunny.5 mph64%29.80 "Hg10 mi
8:20 PM66 °FSunny.3 mph60%29.80 "Hg10 mi
7:50 PM68 °FSunny.3 mph53%29.80 "Hg10 mi
7:20 PM70 °FSunny.2 mph53%29.80 "Hg10 mi
6:50 PM72 °FSunny.3 mph47%29.80 "Hg10 mi
6:20 PM70 °FSunny.8 mph50%29.80 "Hg10 mi
5:50 PM72 °FSunny.9 mph44%29.80 "Hg10 mi
5:20 PM73 °FSunny.10 mph44%29.80 "Hg10 mi
4:50 PM73 °FSunny.13 mph44%29.80 "Hg10 mi
4:20 PM73 °FSunny.10 mph41%29.80 "Hg10 mi
3:50 PM73 °FSunny.9 mph50%29.80 "Hg10 mi
3:20 PM72 °FPartly sunny.9 mph53%29.80 "HgN/A
2:50 PM70 °FPartly sunny.8 mph57%29.83 "HgN/A
2:20 PM70 °FPartly sunny.10 mph53%29.83 "HgN/A
1:50 PM70 °FSunny.9 mph57%29.83 "Hg10 mi
1:20 PM68 °FBroken clouds.13 mph60%29.83 "HgN/A
12:50 PM68 °FBroken clouds.12 mph64%29.83 "HgN/A
12:20 PM70 °FScattered clouds.9 mph57%29.83 "HgN/A
11:50 AM68 °FScattered clouds.9 mph60%29.83 "HgN/A
11:20 AM66 °FBroken clouds.13 mph64%29.83 "HgN/A
10:50 AM64 °FScattered clouds.14 mph68%29.83 "HgN/A
10:20 AM64 °FPartly sunny.14 mph68%29.80 "HgN/A
9:50 AM63 °FPartly sunny.10 mph83%29.80 "HgN/A
9:20 AM61 °FBroken clouds.10 mph88%29.80 "HgN/A
8:50 AM61 °FSunny.12 mph88%29.80 "Hg10 mi
8:20 AM59 °FSunny.13 mph94%29.80 "Hg10 mi
Weather by CustomWeather, © 2015

See weather overviewHow to use our weather pages